There are multiple Weather-warnings   Click here for more information


Meteo18 Weather Cam more information Meteo18 Weather Cam


Thunder radar more information blitzortung!


warning for Snow/Ice more information rain snow radar


Visit our other weather sites:

Template documentation
and downloads

And another site



Weather Underground History page Text

Daily Summary for November 18, 2017 Units:  English    Metric   Both
« Previous Day
Next Day »
Daily Weekly Monthly Yearly Custom
  High: Low: Average:
Temperature: TemperatureC °F 4.3 °F 7.1 °F
Dew Point: DewpointC °F 3.1 °F 4.5 °F
Humidity: Humidity % 71 % 83 %
Wind Speed: WindSpeedKMH mph 0.0 mph 2 mph
Wind Gust: WindSpeedGustKMH mph - -
Wind:- - South
Pressure: PressurehPa in 1024.9 in -
Precipitation: 0.0 in    
Historical Graphs
 
 
Tabular Data for November 18, 2017
Time Temperature Dew Point Pressure Wind Wind Speed Wind Gust Humidity Rainfall Rate (Hourly)
TemperatureC °F DewpointC °F PressurehPa in Calm     Humidity % HourlyPrecipMM in
00:02 7.1 °F 6.2 °F 1026.6 in NE 8.0 mph 9.7 mph 94 % 0.0 in
00:07 7.1 °F 6.0 °F 1026.6 in NW 6.4 mph 11.3 mph 93 % 0.0 in
00:12 7.1 °F 6.0 °F 1026.6 in North 6.4 mph 14.5 mph 93 % 0.0 in
00:17 7.1 °F 6.2 °F 1026.6 in NE 4.8 mph 14.5 mph 94 % 0.0 in
00:22 7.0 °F 5.9 °F 1026.6 in NNE 8.0 mph 16.1 mph 93 % 0.0 in
00:27 7.0 °F 5.9 °F 1026.6 in NNE 4.8 mph 17.7 mph 93 % 0.0 in
00:32 7.0 °F 5.9 °F 1026.6 in NW 1.6 mph 17.7 mph 93 % 0.0 in
00:37 7.0 °F 6.1 °F 1026.6 in NNW 3.2 mph 17.7 mph 94 % 0.0 in
00:42 7.0 °F 5.9 °F 1026.6 in NNE 11.3 mph 16.1 mph 93 % 0.0 in
00:52 6.9 °F 5.8 °F 1026.3 in ENE 6.4 mph 14.5 mph 93 % 0.0 in
01:02 6.9 °F 6.0 °F 1026.3 in NNE 4.8 mph 16.1 mph 94 % 0.0 in
01:07 6.9 °F 6.0 °F 1026.3 in Calm   12.9 mph 94 % 0.0 in
01:17 6.9 °F 6.0 °F 1026.3 in NE 3.2 mph 12.9 mph 94 % 0.0 in
01:22 6.9 °F 6.0 °F 1026.3 in North 3.2 mph 12.9 mph 94 % 0.0 in
01:27 6.8 °F 5.9 °F 1026.3 in ENE 4.8 mph 9.7 mph 94 % 0.0 in
01:32 6.8 °F 5.7 °F 1026.3 in NNE 8.0 mph 14.5 mph 93 % 0.0 in
01:37 6.8 °F 5.7 °F 1026.3 in NNE 8.0 mph 14.5 mph 93 % 0.0 in
01:42 6.8 °F 5.7 °F 1026.3 in ENE 6.4 mph 17.7 mph 93 % 0.0 in
01:47 6.9 °F 5.8 °F 1026.3 in ENE 4.8 mph 17.7 mph 93 % 0.0 in
01:52 6.8 °F 5.7 °F 1026.3 in North 1.6 mph 16.1 mph 93 % 0.0 in
01:57 6.9 °F 5.8 °F 1026.3 in NNE 6.4 mph 11.3 mph 93 % 0.0 in
02:02 6.9 °F 5.8 °F 1026.3 in NE 4.8 mph 9.7 mph 93 % 0.0 in
02:12 6.9 °F 5.8 °F 1026.3 in NNE 9.7 mph 14.5 mph 93 % 0.0 in
02:17 6.9 °F 5.8 °F 1026.0 in NE 4.8 mph 14.5 mph 93 % 0.0 in
02:22 6.9 °F 5.8 °F 1026.3 in NNE 8.0 mph 14.5 mph 93 % 0.0 in
02:32 6.9 °F 5.8 °F 1026.3 in NE 6.4 mph 11.3 mph 93 % 0.0 in
02:37 6.9 °F 5.7 °F 1026.3 in NE 8.0 mph 11.3 mph 92 % 0.0 in
02:47 7.0 °F 5.8 °F 1026.3 in North 1.6 mph 16.1 mph 92 % 0.0 in
02:52 7.1 °F 5.9 °F 1026.3 in Calm   16.1 mph 92 % 0.0 in
02:57 7.1 °F 5.9 °F 1026.3 in NNE 1.6 mph 16.1 mph 92 % 0.0 in
03:02 7.1 °F 5.9 °F 1026.3 in NE 6.4 mph 11.3 mph 92 % 0.0 in
03:07 7.1 °F 5.9 °F 1026.3 in NE 4.8 mph 11.3 mph 92 % 0.0 in
03:12 7.1 °F 5.7 °F 1026.3 in NNE 9.7 mph 11.3 mph 91 % 0.0 in
03:17 7.1 °F 5.7 °F 1026.3 in ENE 1.6 mph 11.3 mph 91 % 0.0 in
03:22 7.1 °F 5.7 °F 1026.3 in NE 1.6 mph 11.3 mph 91 % 0.0 in
03:27 7.1 °F 5.9 °F 1026.3 in NE 1.6 mph 9.7 mph 92 % 0.0 in
03:32 6.7 °F 5.5 °F 1026.3 in NNE 3.2 mph 6.4 mph 92 % 0.0 in
03:37 6.8 °F 5.6 °F 1026.3 in NE 1.6 mph 6.4 mph 92 % 0.0 in
08:37 5.1 °F 3.9 °F 1026.3 in Calm     92 % 0.0 in
08:42 5.1 °F 3.9 °F 1026.6 in Calm     92 % 0.0 in
08:47 5.0 °F 3.8 °F 1026.6 in Calm   1.6 mph 92 % 0.0 in
08:52 5.1 °F 4.1 °F 1026.6 in Calm   1.6 mph 93 % 0.0 in
08:57 5.2 °F 4.2 °F 1026.6 in Calm   1.6 mph 93 % 0.0 in
09:02 5.2 °F 4.0 °F 1026.6 in Calm   1.6 mph 92 % 0.0 in
09:07 5.3 °F 4.1 °F 1026.6 in Calm   1.6 mph 92 % 0.0 in
09:12 5.3 °F 4.1 °F 1026.6 in Calm   1.6 mph 92 % 0.0 in
09:17 5.4 °F 4.2 °F 1026.6 in Calm     92 % 0.0 in
09:22 5.4 °F 4.2 °F 1026.6 in Calm   1.6 mph 92 % 0.0 in
09:27 5.7 °F 4.5 °F 1026.6 in Calm   1.6 mph 92 % 0.0 in
09:32 5.8 °F 4.4 °F 1026.6 in Calm   1.6 mph 91 % 0.0 in
09:42 6.3 °F 4.9 °F 1026.6 in Calm     91 % 0.0 in
09:47 6.7 °F 5.3 °F 1026.6 in Calm   1.6 mph 91 % 0.0 in
09:52 7.2 °F 5.8 °F 1026.6 in Calm   1.6 mph 91 % 0.0 in
10:02 7.9 °F 5.4 °F 1027.0 in Calm   1.6 mph 84 % 0.0 in
10:12 7.5 °F 5.0 °F 1027.3 in Calm   1.6 mph 84 % 0.0 in
10:17 7.5 °F 5.0 °F 1027.0 in NNE 1.6 mph 3.2 mph 84 % 0.0 in
10:22 7.4 °F 4.9 °F 1027.0 in NE 3.2 mph 3.2 mph 84 % 0.0 in
10:32 7.4 °F 4.9 °F 1027.0 in NNE 1.6 mph 3.2 mph 84 % 0.0 in
10:42 7.8 °F 5.1 °F 1027.0 in Calm   3.2 mph 83 % 0.0 in
10:47 8.3 °F 5.6 °F 1027.0 in Calm   3.2 mph 83 % 0.0 in
10:52 8.4 °F 4.8 °F 1027.3 in Calm   3.2 mph 78 % 0.0 in
11:02 8.5 °F 4.7 °F 1027.3 in Calm   1.6 mph 77 % 0.0 in
11:12 8.4 °F 4.6 °F 1027.3 in Calm   1.6 mph 77 % 0.0 in
11:17 8.6 °F 4.8 °F 1027.3 in Calm   8.0 mph 77 % 0.0 in
11:22 8.6 °F 4.6 °F 1027.3 in Calm   8.0 mph 76 % 0.0 in
11:27 8.8 °F 5.0 °F 1027.3 in North 4.8 mph 8.0 mph 77 % 0.0 in
11:32 8.8 °F 4.6 °F 1027.3 in NE 1.6 mph 3.2 mph 75 % 0.0 in
11:37 8.7 °F 4.5 °F 1027.0 in Calm   6.4 mph 75 % 0.0 in
11:42 8.6 °F 4.6 °F 1027.0 in ENE 3.2 mph 6.4 mph 76 % 0.0 in
11:47 8.5 °F 4.5 °F 1027.0 in NNE 1.6 mph 8.0 mph 76 % 0.0 in
11:52 8.6 °F 4.6 °F 1027.0 in NNW 4.8 mph 9.7 mph 76 % 0.0 in
11:57 8.6 °F 4.6 °F 1027.0 in NE 4.8 mph 9.7 mph 76 % 0.0 in
12:02 8.3 °F 4.3 °F 1027.0 in Calm   9.7 mph 76 % 0.0 in
12:12 8.4 °F 4.0 °F 1027.0 in NNW 4.8 mph 9.7 mph 74 % 0.0 in
12:17 8.4 °F 4.0 °F 1027.0 in NNW 3.2 mph 8.0 mph 74 % 0.0 in
12:27 8.4 °F 4.2 °F 1027.0 in North 3.2 mph 8.0 mph 75 % 0.0 in
12:32 8.4 °F 4.0 °F 1027.0 in NNW 4.8 mph 6.4 mph 74 % 0.0 in
12:37 8.4 °F 3.8 °F 1027.0 in North 4.8 mph 6.4 mph 73 % 0.0 in
12:42 8.4 °F 3.8 °F 1026.6 in North 1.6 mph 12.9 mph 73 % 0.0 in
12:47 8.4 °F 3.8 °F 1026.6 in NW 6.4 mph 12.9 mph 73 % 0.0 in
12:52 8.5 °F 3.7 °F 1026.6 in WNW 3.2 mph 9.7 mph 72 % 0.0 in
12:57 8.6 °F 3.8 °F 1026.6 in NW 3.2 mph 9.7 mph 72 % 0.0 in
13:02 8.7 °F 3.9 °F 1026.6 in Calm   9.7 mph 72 % 0.0 in
13:12 8.4 °F 5.0 °F 1026.6 in NE 8.0 mph 11.3 mph 79 % 0.0 in
13:17 8.3 °F 4.9 °F 1026.6 in NE 3.2 mph 11.3 mph 79 % 0.0 in
13:22 8.2 °F 4.6 °F 1026.3 in NE 6.4 mph 11.3 mph 78 % 0.0 in
13:32 8.2 °F 4.8 °F 1026.6 in Calm   9.7 mph 79 % 0.0 in
13:37 8.3 °F 4.7 °F 1026.6 in ENE 1.6 mph 8.0 mph 78 % 0.0 in
13:42 8.3 °F 4.9 °F 1026.6 in Calm   8.0 mph 79 % 0.0 in
13:52 8.3 °F 5.2 °F 1026.6 in Calm   4.8 mph 81 % 0.0 in
14:02 8.3 °F 5.1 °F 1026.3 in Calm   8.0 mph 80 % 0.0 in
14:12 8.4 °F 4.6 °F 1026.3 in Calm   8.0 mph 77 % 0.0 in
14:22 8.6 °F 5.0 °F 1026.3 in Calm   9.7 mph 78 % 0.0 in
14:32 8.5 °F 4.5 °F 1026.3 in Calm   9.7 mph 76 % 0.0 in
14:37 8.4 °F 4.2 °F 1026.3 in NNW 1.6 mph 8.0 mph 75 % 0.0 in
14:42 8.4 °F 4.4 °F 1026.3 in Calm   8.0 mph 76 % 0.0 in
14:52 8.4 °F 3.8 °F 1026.3 in NNE 1.6 mph 8.0 mph 73 % 0.0 in
14:57 8.4 °F 3.6 °F 1026.3 in NNW 3.2 mph 8.0 mph 72 % 0.0 in
15:02 8.4 °F 3.6 °F 1026.3 in NNW 6.4 mph 8.0 mph 72 % 0.0 in
15:07 8.4 °F 3.4 °F 1026.3 in NW 8.0 mph 11.3 mph 71 % 0.0 in
15:12 8.4 °F 3.6 °F 1026.3 in NNW 8.0 mph 11.3 mph 72 % 0.0 in
15:17 8.3 °F 3.5 °F 1026.3 in NNW 8.0 mph 11.3 mph 72 % 0.0 in
15:22 8.2 °F 3.5 °F 1026.3 in NNW 3.2 mph 9.7 mph 72 % 0.0 in
15:32 8.2 °F 3.6 °F 1026.0 in Calm   11.3 mph 73 % 0.0 in
15:37 8.2 °F 3.6 °F 1026.0 in NNE 3.2 mph 11.3 mph 73 % 0.0 in
15:42 8.2 °F 3.8 °F 1026.0 in NNW 3.2 mph 11.3 mph 74 % 0.0 in
15:47 8.2 °F 3.5 °F 1026.0 in WNW 1.6 mph 9.7 mph 72 % 0.0 in
15:52 8.3 °F 3.5 °F 1026.0 in Calm   8.0 mph 72 % 0.0 in
15:57 8.3 °F 3.5 °F 1026.0 in Calm   8.0 mph 72 % 0.0 in
16:02 8.3 °F 3.5 °F 1026.0 in Calm   4.8 mph 72 % 0.0 in
16:07 8.3 °F 3.5 °F 1026.0 in Calm   1.6 mph 72 % 0.0 in
16:12 8.3 °F 3.5 °F 1026.0 in West 1.6 mph 1.6 mph 72 % 0.0 in
16:17 8.3 °F 3.7 °F 1026.0 in Calm   1.6 mph 73 % 0.0 in
16:22 8.3 °F 3.7 °F 1026.0 in WNW 1.6 mph 1.6 mph 73 % 0.0 in
16:27 8.3 °F 3.5 °F 1026.0 in WSW 1.6 mph 3.2 mph 72 % 0.0 in
16:32 8.2 °F 3.6 °F 1026.0 in Calm   3.2 mph 73 % 0.0 in
16:37 8.2 °F 3.6 °F 1026.0 in West 1.6 mph 3.2 mph 73 % 0.0 in
16:42 8.2 °F 3.6 °F 1026.0 in WNW 3.2 mph 3.2 mph 73 % 0.0 in
16:47 8.2 °F 3.6 °F 1026.0 in Calm   3.2 mph 73 % 0.0 in
16:52 8.2 °F 3.6 °F 1025.6 in Calm   3.2 mph 73 % 0.0 in
16:57 8.2 °F 3.8 °F 1025.6 in Calm   3.2 mph 74 % 0.0 in
17:02 8.1 °F 3.7 °F 1026.0 in Calm   3.2 mph 74 % 0.0 in
17:07 8.1 °F 3.9 °F 1025.6 in Calm   1.6 mph 75 % 0.0 in
17:12 8.1 °F 3.9 °F 1025.6 in Calm   1.6 mph 75 % 0.0 in
17:17 7.9 °F 3.7 °F 1025.6 in Calm   1.6 mph 75 % 0.0 in
17:22 7.9 °F 3.9 °F 1025.6 in Calm   1.6 mph 76 % 0.0 in
17:27 7.9 °F 3.9 °F 1025.6 in Calm     76 % 0.0 in
17:32 7.8 °F 3.8 °F 1025.6 in Calm     76 % 0.0 in
17:37 7.8 °F 4.0 °F 1025.6 in Calm     77 % 0.0 in
17:42 7.7 °F 4.1 °F 1025.6 in Calm     78 % 0.0 in
17:47 7.7 °F 4.1 °F 1026.0 in WNW 1.6 mph 1.6 mph 78 % 0.0 in
17:52 7.7 °F 4.1 °F 1025.6 in WNW 1.6 mph 1.6 mph 78 % 0.0 in
17:57 7.7 °F 4.3 °F 1026.0 in WNW 1.6 mph 3.2 mph 79 % 0.0 in
18:02 7.6 °F 4.2 °F 1026.0 in WNW 1.6 mph 3.2 mph 79 % 0.0 in
18:12 7.6 °F 4.0 °F 1025.6 in Calm   4.8 mph 78 % 0.0 in
18:22 7.6 °F 4.2 °F 1025.3 in Calm   4.8 mph 79 % 0.0 in
18:27 7.6 °F 4.2 °F 1025.6 in NW 3.2 mph 3.2 mph 79 % 0.0 in
18:32 7.5 °F 4.3 °F 1025.6 in Calm   1.6 mph 80 % 0.0 in
18:42 7.4 °F 4.5 °F 1025.6 in NNW 1.6 mph 4.8 mph 82 % 0.0 in
18:47 7.3 °F 4.4 °F 1025.6 in Calm   4.8 mph 82 % 0.0 in
18:52 7.3 °F 4.4 °F 1025.6 in Calm   4.8 mph 82 % 0.0 in
19:02 7.2 °F 4.5 °F 1025.6 in NW 1.6 mph 1.6 mph 83 % 0.0 in
19:07 7.2 °F 4.7 °F 1025.6 in Calm   1.6 mph 84 % 0.0 in
19:12 7.2 °F 4.7 °F 1025.6 in Calm   1.6 mph 84 % 0.0 in
19:17 7.1 °F 4.6 °F 1025.6 in Calm   1.6 mph 84 % 0.0 in
19:22 7.1 °F 4.7 °F 1025.3 in Calm   1.6 mph 85 % 0.0 in
19:32 7.1 °F 4.7 °F 1025.6 in Calm   1.6 mph 85 % 0.0 in
19:37 7.1 °F 4.7 °F 1025.6 in Calm   1.6 mph 85 % 0.0 in
19:42 7.1 °F 4.7 °F 1025.6 in Calm   1.6 mph 85 % 0.0 in
19:47 7.0 °F 4.7 °F 1025.6 in Calm   1.6 mph 85 % 0.0 in
19:52 7.0 °F 4.7 °F 1025.6 in Calm   1.6 mph 85 % 0.0 in
19:57 6.9 °F 4.7 °F 1025.6 in Calm   1.6 mph 86 % 0.0 in
20:02 6.9 °F 4.6 °F 1025.6 in Calm   1.6 mph 85 % 0.0 in
20:12 7.1 °F 4.6 °F 1025.3 in Calm   1.6 mph 84 % 0.0 in
20:17 7.1 °F 4.6 °F 1025.3 in Calm   3.2 mph 84 % 0.0 in
20:22 7.1 °F 4.7 °F 1025.6 in Calm   3.2 mph 85 % 0.0 in
20:32 6.9 °F 4.6 °F 1025.6 in WNW 1.6 mph 1.6 mph 85 % 0.0 in
20:37 6.8 °F 4.6 °F 1025.6 in Calm   1.6 mph 86 % 0.0 in
20:42 6.7 °F 4.7 °F 1025.3 in Calm   1.6 mph 87 % 0.0 in
20:47 6.7 °F 4.7 °F 1025.3 in Calm   1.6 mph 87 % 0.0 in
20:52 6.7 °F 4.5 °F 1025.3 in Calm   3.2 mph 86 % 0.0 in
20:57 6.6 °F 4.4 °F 1025.3 in Calm   3.2 mph 86 % 0.0 in
21:02 6.5 °F 4.3 °F 1025.3 in Calm   3.2 mph 86 % 0.0 in
21:07 6.5 °F 4.5 °F 1025.3 in Calm   3.2 mph 87 % 0.0 in
21:12 6.5 °F 4.3 °F 1025.3 in SW 1.6 mph 4.8 mph 86 % 0.0 in
21:17 6.5 °F 4.2 °F 1025.3 in West 1.6 mph 4.8 mph 85 % 0.0 in
21:22 6.4 °F 4.1 °F 1025.3 in West 1.6 mph 4.8 mph 85 % 0.0 in
21:27 6.3 °F 4.0 °F 1025.3 in Calm   6.4 mph 85 % 0.0 in
21:32 6.3 °F 4.0 °F 1025.3 in WSW 3.2 mph 6.4 mph 85 % 0.0 in
21:37 6.3 °F 4.0 °F 1025.3 in WSW 3.2 mph 6.4 mph 85 % 0.0 in
21:42 6.2 °F 4.0 °F 1025.3 in WSW 1.6 mph 6.4 mph 86 % 0.0 in
21:47 6.2 °F 4.0 °F 1025.3 in WSW 1.6 mph 4.8 mph 86 % 0.0 in
21:52 6.1 °F 3.8 °F 1025.3 in West 1.6 mph 6.4 mph 85 % 0.0 in
21:57 6.0 °F 3.8 °F 1025.3 in West 3.2 mph 6.4 mph 86 % 0.0 in
22:02 5.8 °F 3.6 °F 1025.3 in West 4.8 mph 9.7 mph 86 % 0.0 in
22:07 5.7 °F 3.7 °F 1025.3 in West 3.2 mph 9.7 mph 87 % 0.0 in
22:12 5.4 °F 3.6 °F 1024.9 in West 3.2 mph 9.7 mph 88 % 0.0 in
22:17 5.2 °F 3.5 °F 1024.9 in West 1.6 mph 8.0 mph 89 % 0.0 in
22:27 5.3 °F 3.6 °F 1024.9 in West 3.2 mph 4.8 mph 89 % 0.0 in
22:32 5.2 °F 3.5 °F 1024.9 in West 1.6 mph 4.8 mph 89 % 0.0 in
22:37 4.9 °F 3.2 °F 1024.9 in West 1.6 mph 4.8 mph 89 % 0.0 in
22:42 4.8 °F 3.3 °F 1024.9 in WNW 1.6 mph 3.2 mph 90 % 0.0 in
22:47 4.8 °F 3.3 °F 1024.9 in WNW 1.6 mph 3.2 mph 90 % 0.0 in
22:52 4.8 °F 3.5 °F 1024.9 in Calm   3.2 mph 91 % 0.0 in
22:57 4.9 °F 3.6 °F 1024.9 in Calm   3.2 mph 91 % 0.0 in
23:02 4.9 °F 3.4 °F 1024.9 in WNW 1.6 mph 3.2 mph 90 % 0.0 in
23:07 4.8 °F 3.5 °F 1024.9 in WNW 1.6 mph 3.2 mph 91 % 0.0 in
23:12 4.7 °F 3.2 °F 1024.9 in Calm   1.6 mph 90 % 0.0 in
23:17 4.6 °F 3.3 °F 1024.9 in Calm   1.6 mph 91 % 0.0 in
23:22 4.4 °F 3.1 °F 1024.9 in Calm   1.6 mph 91 % 0.0 in
23:32 4.3 °F 3.1 °F 1024.9 in Calm   1.6 mph 92 % 0.0 in
23:37 4.4 °F 3.4 °F 1024.9 in WNW 1.6 mph 3.2 mph 93 % 0.0 in
23:42 4.6 °F 3.4 °F 1024.9 in West 1.6 mph 3.2 mph 92 % 0.0 in
23:52 4.7 °F 3.5 °F 1024.9 in Calm   3.2 mph 92 % 0.0 in
Meteo18
Compliments of Weather Underground - 4 mb

Script developed by  Jim McMurry - jmcmurry@mwt.net Adapted for the template by  Wim van der Kuil - Leuven-Template.eu

You find our weather info also at:

European Weather Network

Weather Underground

Equipment we use:

Weather-station
Davis Vue

Weather-program
Meteobridge

Weather-server
Raspberry PI 2 B+

Provider
1 and 1

Davis Vue

Meteobridge

Raspberry PI 2 B+

1 and 1